sat.trackr.live / text

‹ back to catalog

ONEWEB-0414

NORAD 50491 · 2021-132Y

PAYLOAD ACTIVE UNKNOWN

§ Identity

Operator
Country
UK
Launch date
2021-12-27
Launch site
TYMSC
Launch vehicle
Mass (kg)
RCS (m²)

Purposes: comms

External: N2YO · Heavens-Above · Gunter

§ Orbital elements

Epoch: 2026-05-25T02:29:58.434720Z

Period
109.20 min
Inclination
87.9169°
Eccentricity
0.0001974
Mean motion
13.18687291 rev/d
Perigee alt
1,188.2 km
Apogee alt
1,191.2 km
Semi-major
7,567.9 km
B*
4.7083e-5
RAAN
340.0306°
Arg perigee
85.1762°
Mean anomaly
274.9595°
Rev number
21,858

§ Raw data

ONEWEB-04141 50491U 21132Y   26145.10414855  .00000031  00000+0  47083-4 0  99932 50491  87.9169 340.0306 0001974  85.1762 274.9595 13.18687291218588

JSON: /api/v1/satellites/50491 · /tle

For live sub-satellite position, see the globe view (requires WebGL).

§ Visibility from observer

Set your observer location to see the next 7 days of passes ≥ 10°. The values pass through the URL so the page stays shareable.

No JS? Fill the form by hand. The geolocation button needs JavaScript.